Snowfall_Accumulation
1.1 3.9 6.7 3.2 2.8 3.1 3.5 4.6 4.2 1.9 1.2 1.7 1.8 1.6 1.0 0.5 0.5 0.6 0.4 0.4 0.3 0.3 0.1 0.1 0.1 0.1 0.1 0.0 0.0 0.1 0.1 0.0 0.0 0.0 0.0 0.0 0.0 0.0 0.0 0.0 0.0 0.0 0.0 0.0
5.2 6.4 2.2 0.9 1.4 3.1 4.6 6.2 4.5 2.1 1.0 2.3 2.4 2.2 1.3 0.9 1.1 0.8 0.6 0.7 0.6 0.5 0.3 0.1 0.2 0.3 0.2 0.1 0.1 0.1 0.0 0.1 0.0 0.0 0.0 0.0 0.0 0.0 0.0 0.0 0.0 0.0 0.0 0.0
6.9 3.5 0.8 1.9 3.3 5.1 4.8 5.1 4.2 3.7 2.3 2.0 3.8 4.0 1.9 1.4 1.0 0.8 0.8 0.7 0.8 0.8 0.8 0.7 0.4 0.4 0.5 0.3 0.2 0.2 0.1 0.1 0.1 0.0 0.0 0.0 0.1 0.0 0.0 0.0 0.0 0.0 0.0 0.1
4.9 1.4 1.0 2.9 4.1 5.5 6.8 2.1 2.5 3.3 6.3 7.7 6.3 10.1 2.9 1.8 1.4 1.5 1.3 1.2 1.0 1.0 0.8 0.9 0.6 0.5 0.6 0.5 0.4 0.1 0.1 0.1 0.1 0.0 0.0 0.1 0.2 0.1 0.2 0.2 0.0 0.0 0.0 0.1
5.9 2.2 2.0 3.6 2.8 3.2 4.3 1.5 2.3 4.0 7.2 9.8 6.2 9.9 4.1 1.6 2.3 2.0 1.7 1.3 1.3 1.2 1.0 0.9 0.7 0.6 0.4 0.5 0.5 0.2 0.1 0.1 0.1 0.1 0.3 0.4 0.6 0.2 0.2 0.3 0.0 0.3 0.0 0.1
4.1 1.2 2.3 2.4 0.9 1.3 2.0 2.3 3.4 5.2 10.6 20.6 6.7 7.9 5.7 4.1 5.1 3.6 2.4 1.7 2.2 1.2 1.1 0.8 0.7 0.6 0.5 0.6 0.4 0.2 0.4 0.2 0.1 0.1 0.1 0.2 0.2 0.1 0.1 0.1 0.2 0.3 0.1 0.2
6.9 3.5 1.8 1.2 3.4 2.6 4.6 13.7 27.2 29.1 29.1 16.4 3.0 5.9 6.3 4.5 4.5 4.8 3.7 3.2 2.4 1.3 1.4 1.3 1.0 0.8 0.7 0.8 0.7 0.7 0.5 0.2 0.1 0.2 0.2 0.2 0.1 0.1 0.1 0.1 0.2 0.3 0.4 0.3
10.3 9.1 3.2 1.9 3.3 5.3 5.4 10.7 21.8 21.9 14.7 6.5 3.5 6.2 5.9 3.8 3.3 3.0 3.0 2.7 2.2 1.5 1.5 1.6 1.6 1.3 0.9 0.8 0.7 0.8 0.4 0.3 0.2 0.2 0.4 0.1 0.1 0.1 0.1 0.1 0.3 0.2 0.4 0.4
10.8 7.7 2.4 1.1 1.3 3.1 7.7 10.0 7.8 14.9 11.4 7.7 5.9 5.2 3.9 1.8 1.7 2.1 2.4 2.2 2.2 1.9 2.0 1.6 1.6 1.6 1.4 0.8 0.9 1.1 0.8 0.5 0.3 0.3 0.3 0.1 0.1 0.1 0.1 0.2 0.2 0.2 0.2 0.2
11.0 10.0 3.4 0.7 1.7 2.5 3.8 6.4 11.1 20.4 18.1 10.4 6.2 5.6 6.3 3.9 3.7 3.3 3.4 3.8 3.4 2.9 2.1 1.7 1.3 1.5 1.2 1.0 0.9 1.0 1.1 0.9 0.6 0.3 0.6 0.5 0.1 0.1 0.1 0.1 0.2 0.2 0.1 0.2
9.0 12.6 7.1 4.8 6.9 8.0 7.1 9.8 13.7 17.0 14.2 12.4 8.3 7.6 7.3 6.0 5.4 4.9 4.6 4.4 4.1 3.0 2.8 1.9 1.4 1.4 1.2 1.1 1.1 0.9 0.9 0.9 0.8 0.7 0.8 0.8 0.3 0.1 0.1 0.1 0.1 0.2 0.2 0.2
9.0 13.5 10.7 4.9 3.0 3.4 5.9 9.5 12.8 19.3 14.3 9.3 9.1 8.1 5.1 4.6 4.7 4.6 4.4 3.9 3.9 3.0 2.3 1.6 1.6 1.3 1.2 1.2 1.0 1.0 0.8 0.9 0.9 0.8 1.0 0.9 0.9 0.7 0.2 0.2 0.1 0.2 0.2 0.2
14.9 19.8 19.1 8.3 5.4 4.5 7.6 7.4 9.0 12.3 13.5 9.8 8.7 7.3 3.6 2.9 2.8 3.1 3.7 3.9 3.9 3.5 2.2 2.1 1.7 1.6 1.4 1.3 1.1 1.0 0.9 0.6 0.8 0.9 0.8 0.6 0.6 0.6 0.6 0.6 0.2 0.2 0.4 0.3
13.9 21.7 15.5 12.2 9.0 8.9 8.9 6.5 6.6 12.3 16.7 9.3 5.4 5.3 3.8 3.1 3.1 3.4 3.6 3.9 3.7 3.5 3.0 2.5 2.4 2.3 1.9 1.5 1.1 0.8 0.7 0.7 0.6 0.7 0.9 0.7 0.7 0.8 0.7 0.6 0.5 0.7 0.6 0.5
14.1 19.1 8.6 4.8 3.8 5.1 5.8 5.2 5.5 8.1 8.0 7.8 4.5 4.4 4.5 4.0 4.1 4.1 3.9 3.5 3.3 3.1 3.1 3.2 2.9 2.8 2.4 1.9 1.5 0.9 0.5 0.6 0.6 0.9 1.0 0.8 0.9 0.5 0.8 0.6 0.7 0.5 0.6 0.5
14.5 17.3 8.9 5.1 3.0 4.1 4.9 3.9 3.9 4.7 4.4 4.2 3.2 3.6 3.7 3.5 3.0 3.3 3.0 3.4 3.7 3.5 3.1 2.8 2.8 2.8 3.0 2.3 1.9 1.5 0.8 0.6 0.7 0.9 1.1 1.1 1.3 1.3 0.7 0.4 0.6 0.6 0.8 0.8
16.1 17.6 16.0 8.9 3.4 6.3 7.8 4.7 4.4 4.7 4.5 4.1 4.8 4.8 3.8 3.3 3.2 4.0 3.7 3.8 4.1 4.0 3.3 2.9 2.9 3.1 3.1 2.7 2.5 2.0 1.3 0.9 0.8 0.8 1.0 1.2 1.4 1.3 0.9 0.6 0.5 0.6 0.8 0.9
13.9 17.0 22.3 15.5 10.3 13.6 6.0 3.9 3.7 4.4 4.8 4.4 4.5 3.9 4.2 4.3 4.0 3.8 3.9 4.4 4.2 4.0 3.7 3.1 3.0 2.9 2.6 2.4 2.3 2.2 1.3 1.2 1.2 1.2 1.2 1.6 1.5 1.8 1.2 0.9 0.8 0.8 0.8 1.0
7.0 15.8 25.2 21.6 14.6 7.0 3.8 3.7 5.0 5.9 6.2 4.6 3.8 2.9 2.9 3.0 2.6 3.9 3.2 3.5 4.4 3.6 3.8 3.3 2.8 2.8 2.1 2.0 2.0 2.2 1.5 1.2 1.3 1.4 1.7 1.8 1.8 2.0 1.7 1.4 1.1 1.1 1.4 0.9
7.1 13.7 26.5 23.6 17.2 8.2 5.1 3.3 3.6 5.1 7.6 4.3 3.5 3.5 3.4 3.5 5.2 5.2 3.5 3.5 3.3 2.8 2.7 2.6 2.2 2.0 2.0 1.8 1.5 2.0 2.0 1.6 1.6 1.8 1.8 1.8 1.8 2.0 2.0 2.1 1.8 1.1 1.4 1.5
13.6 21.5 25.3 18.7 15.3 5.9 4.0 3.1 2.9 8.0 9.5 4.6 4.2 4.6 4.5 5.6 6.6 5.4 4.0 3.8 3.2 3.0 2.7 2.3 2.0 2.0 1.8 1.8 1.8 1.9 1.6 1.9 1.7 1.5 1.6 1.9 1.6 1.8 2.0 1.9 1.9 1.2 1.5 1.7
9.6 14.1 14.5 13.6 15.9 7.8 3.7 4.3 7.9 9.1 5.1 4.3 4.1 3.9 4.4 4.4 3.8 3.5 3.6 3.9 3.8 3.6 2.8 2.4 2.6 2.4 1.8 1.9 2.0 2.2 2.0 1.8 1.8 1.7 1.6 1.9 1.8 2.0 1.8 1.9 2.0 1.9 1.9 2.4
7.4 9.7 11.1 10.8 8.6 5.7 4.5 6.0 6.0 5.3 4.9 4.1 3.9 3.5 3.9 4.0 4.0 3.6 3.8 4.1 4.6 4.0 3.5 2.9 3.0 2.7 1.7 2.0 2.2 2.3 1.7 1.7 1.9 2.0 1.8 2.0 1.8 1.9 2.1 2.1 2.4 2.1 2.7 3.2
5.8 5.3 7.8 7.6 5.1 4.0 3.6 3.7 3.4 3.4 3.9 3.4 3.5 3.5 3.7 4.2 3.9 3.8 3.9 4.2 4.6 4.0 3.9 3.6 3.6 3.4 2.8 2.3 2.4 2.5 2.1 2.0 2.4 2.0 1.7 2.0 2.1 2.4 2.3 2.3 2.5 2.8 3.4 4.8
5.1 5.5 6.3 5.7 3.8 3.3 2.9 3.0 3.1 2.6 2.6 2.5 2.7 2.7 3.3 3.6 3.9 4.0 4.1 4.5 4.8 4.3 4.1 3.8 3.8 3.8 3.4 2.6 2.3 2.5 2.5 2.6 2.7 2.0 1.8 2.1 2.3 2.6 2.7 2.8 2.8 3.5 3.6 5.4
3.9 5.1 6.4 5.7 4.1 5.0 4.0 3.1 2.7 2.7 2.6 2.9 3.1 2.8 2.5 3.0 3.8 3.7 3.9 4.2 4.5 4.6 4.1 3.7 3.4 3.7 3.6 2.9 2.9 2.7 2.9 3.2 3.5 2.4 2.1 2.4 2.9 2.7 2.7 2.8 3.2 2.3 2.9 3.2